Location: Newark
(52.5667°N, 8.8000°W)
Time: 00:30:58
(UTC+00:00)

N. Korean satellite - Pass Details

Date: 24 January 2020
Orbit: 456 x 505 km, 97.2° (Epoch: 24 February)

Event Time Altitude Azimuth Distance (km) Brightness Sun altitude
Rises 07:40:21 0° 2° (N) 2,528 10.0 -7.5°
Reaches altitude 10° 07:42:46 10° 345° (NNW) 1,654 8.9 -7.2°
Maximum altitude 07:45:26 20° 296° (WNW) 1,154 7.8 -6.8°
Drops below altitude 10° 07:48:07 10° 248° (WSW) 1,665 8.9 -6.4°
Sets 07:50:33 0° 231° (SW) 2,551 9.9 -6.1°
